XJS H (45612 NORAD) Tracking and Keplerian Element Data

This shows tracking and keplerian element data for the satellite.

Feedback or suggestion? Click here.




ElementValue
Catalog45612
NameXJS H
Epoch Orbit575
Epoch Day188.63054367
Epoch Year2020
RAAN288.1522
Inclination35.0329
Eccentricity0.0014823
Argument of Perigee292.7182
Mean Anonmoly198.4079
Mean Motion15.29876295
Decay Rate8.48E-06
L11 45612U 20032B 20188.63054367 .00000848 00000-0 29865-4 0 9992
L22 45612 35.0329 288.1522 0014823 292.7182 198.4079 15.29876295 5758

Live tracking and technical data element details for XJS H (NORAD 45612). XJS H can be tracked NOW for your location showing map with azimuth and elevation plus other details from your city location.

Track the satellite on the map from your city or location and see movement details for azimuth, elevation, latitude, longitude, range, height, and movement on the map or in text.







IsCatalogInMostPopularTable: catalog: 45612, numindb: 7
Update: records affected: 1



GetName: 45612 XJS H

Hit Count: updated at: Wed, 08 Jul 2020 03:19:03 GMT